EW7469 Weather Reports


Display with metric or nautical units.
time (UTC)temp
F
wind
direction
speed
MPH
gust
MPH
rain 1hr
in
rain 24hr
in
rain mn
in
humidity
%
barometer
mb
20260506102943 67 81 0.0 0.0 0.00 0.00 0.00 91 1015.3
20260506102439 67 81 0.0 0.0 0.00 0.00 0.00 91 1015.3
20260506101935 67 81 0.0 0.0 0.00 0.00 0.00 91 1015.3
20260506101440 68 81 0.0 0.0 0.00 0.00 0.00 91 1015.3
20260506100936 68 80 0.0 0.0 0.00 0.00 0.00 91 1015.3
20260506100433 68 80 0.0 0.0 0.00 0.00 0.00 90 1015.3
20260506095931 68 80 0.0 0.0 0.00 0.00 0.00 90 1015.3
20260506095447 68 80 0.0 0.0 0.00 0.00 0.00 90 1015.3
20260506094942 68 80 0.0 0.0 0.00 0.00 0.00 90 1015.3
20260506094435 68 80 0.0 0.0 0.00 0.00 0.00 90 1015.3
20260506094010 68 80 0.0 0.0 0.00 0.00 0.00 89 1015.3
20260506093448 68 80 0.0 0.0 0.00 0.00 0.00 89 1015.3
20260506093003 68 80 0.0 0.0 0.00 0.00 0.00 89 1015.2
20260506092439 68 80 0.0 0.0 0.00 0.00 0.00 88 1015.2
20260506091933 68 80 0.0 0.0 0.00 0.00 0.00 88 1015.2
20260506091440 68 80 0.0 0.0 0.00 0.00 0.00 88 1014.9
20260506090936 68 80 0.0 0.0 0.00 0.00 0.00 88 1014.9
20260506090433 68 80 0.0 0.0 0.00 0.00 0.00 88 1014.9
20260506090006 69 80 0.0 0.0 0.00 0.00 0.00 88 1015.0
20260506085442 69 80 0.0 0.0 0.00 0.00 0.00 88 1015.0
20260506084938 69 80 0.0 0.0 0.00 0.00 0.00 88 1015.0
20260506084433 69 80 0.0 0.0 0.00 0.00 0.00 88 1015.2
20260506084009 69 80 0.0 0.0 0.00 0.00 0.00 87 1015.2
20260506083440 69 80 0.0 0.0 0.00 0.00 0.00 87 1015.2
20260506082935 69 80 0.0 0.0 0.00 0.00 0.00 87 1015.2
20260506082444 69 80 0.0 0.0 0.00 0.00 0.00 87 1015.2
20260506081940 69 80 0.0 0.0 0.00 0.00 0.00 87 1015.2
20260506081435 69 80 0.0 0.0 0.00 0.00 0.00 87 1015.3
20260506080932 70 80 0.0 0.0 0.00 0.00 0.00 87 1015.3
20260506080447 70 80 0.0 0.0 0.00 0.00 0.00 87 1015.3
20260506073448 70 80 0.0 0.0 0.00 0.00 0.00 85 1015.3
20260506073005 70 80 0.0 0.0 0.00 0.00 0.00 85 1015.4
20260506072500 70 80 0.0 0.0 0.00 0.00 0.00 85 1015.4
20260506071957 71 80 0.0 0.0 0.00 0.00 0.00 84 1015.4
20260506071445 71 80 0.0 0.0 0.00 0.00 0.00 84 1015.4
20260506071000 71 80 0.0 0.0 0.00 0.00 0.00 84 1015.4
20260506070445 71 80 0.0 0.0 0.00 0.00 0.00 84 1015.4
20260506062442 71 80 0.0 1.0 0.00 0.00 0.00 82 1015.6
20260506061939 71 80 0.0 1.0 0.00 0.00 0.00 82 1015.6
20260506061440 71 80 0.0 1.0 0.00 0.00 0.00 82 1015.7
20260506060934 72 80 0.0 1.0 0.00 0.00 0.00 81 1015.7
20260506060440 72 80 0.0 1.0 0.00 0.00 0.00 82 1015.7
20260506050946 72 83 0.0 2.0 0.00 0.00 0.00 81 1015.9
20260506050501 72 75 0.0 1.0 0.00 0.00 0.00 80 1015.9
20260506044940 72 70 0.0 2.0 0.00 0.00 0.00 77 1015.8
20260506044435 72 82 0.0 2.0 0.00 0.00 0.00 77 1015.9
20260506043944 72 82 0.0 2.0 0.00 0.00 0.00 76 1015.9
20260506043501 72 65 1.0 2.0 0.00 0.00 0.00 75 1015.9
20260506042938 73 75 0.0 5.0 0.00 0.00 0.00 76 1016.0
20260506042446 73 98 2.0 5.0 0.00 0.00 0.00 76 1016.0
20260506041943 73 76 1.0 3.0 0.00 0.00 0.00 76 1016.0
20260506041435 73 94 0.0 2.0 0.00 0.00 0.00 75 1016.2
20260506040931 73 68 0.0 2.0 0.00 0.00 0.00 74 1016.2
20260506040443 73 110 0.0 2.0 0.00 0.00 0.00 74 1016.2
20260506035957 73 111 0.0 2.0 0.00 0.00 0.00 74 1016.4
20260506035432 73 125 0.0 6.0 0.00 0.00 0.00 73 1016.4
20260506034941 73 131 1.0 6.0 0.00 0.00 0.00 73 1016.4
20260506034436 73 26 0.0 4.0 0.00 0.00 0.00 72 1016.4
20260506033951 73 92 1.0 4.0 0.00 0.00 0.00 72 1016.4
20260506033444 73 122 0.0 2.0 0.00 0.00 0.00 71 1016.4
20260506032937 73 61 0.0 4.0 0.00 0.00 0.00 70 1016.4
20260506032505 73 78 1.0 4.0 0.00 0.00 0.00 70 1016.4
20260506031940 73 77 0.0 5.0 0.00 0.00 0.00 70 1016.4
20260506031437 73 108 1.0 5.0 0.00 0.00 0.00 70 1016.4
20260506030945 73 47 1.0 3.0 0.00 0.00 0.00 70 1016.4
20260506030442 73 97 0.0 3.0 0.00 0.00 0.00 70 1016.4
20260506025940 73 112 1.0 4.0 0.00 0.00 0.00 70 1016.1
20260506025438 74 116 1.0 7.0 0.00 0.00 0.00 70 1016.1
20260506024945 74 52 1.0 7.0 0.00 0.00 0.00 70 1016.1
20260506024440 74 63 1.0 6.0 0.00 0.00 0.00 70 1015.9
20260506023937 74 85 1.0 6.0 0.00 0.00 0.00 69 1015.9
20260506023506 74 87 0.0 7.0 0.00 0.00 0.00 68 1015.9
20260506022941 74 193 0.0 7.0 0.00 0.00 0.00 68 1016.0
20260506022437 74 75 0.0 5.0 0.00 0.00 0.00 69 1016.0
20260506021945 74 82 1.0 5.0 0.00 0.00 0.00 69 1016.0
20260506021457 74 96 0.0 4.0 0.00 0.00 0.00 69 1015.9
20260506020933 74 61 1.0 6.0 0.00 0.00 0.00 68 1015.9
20260506020502 74 75 1.0 6.0 0.00 0.00 0.00 69 1015.9
20260506015938 74 78 1.0 4.0 0.00 0.00 0.00 69 1015.8
20260506015434 74 55 2.0 4.0 0.00 0.00 0.00 69 1015.8
20260506014950 74 79 0.0 2.0 0.00 0.00 0.00 68 1015.8
20260506014439 74 61 0.0 4.0 0.00 0.00 0.00 67 1015.5
20260506013934 75 89 2.0 6.0 0.00 0.00 0.00 67 1015.5
20260506013440 75 38 2.0 6.0 0.00 0.00 0.00 67 1015.5
20260506012934 75 89 1.0 9.0 0.00 0.00 0.00 66 1015.4
20260506012444 75 65 2.0 9.0 0.00 0.00 0.00 66 1015.4
20260506011939 75 36 1.0 3.0 0.00 0.00 0.00 65 1015.4
20260506011457 75 70 0.0 6.0 0.00 0.00 0.00 63 1015.2
20260506011005 75 83 2.0 6.0 0.00 0.00 0.00 63 1015.2
20260506010440 75 73 1.0 3.0 0.00 0.00 0.00 62 1015.2
20260506005936 75 89 0.0 2.0 0.00 0.00 0.00 62 1015.1
20260506005444 75 81 1.0 3.0 0.00 0.00 0.00 62 1015.1
20260506004938 75 72 1.0 5.0 0.00 0.00 0.00 62 1015.1
20260506004435 75 64 1.0 5.0 0.00 0.00 0.00 61 1014.9
20260506003942 75 35 2.0 3.0 0.00 0.00 0.00 60 1014.9
20260506003459 75 86 0.0 4.0 0.00 0.00 0.00 61 1014.9
20260506002939 75 53 1.0 4.0 0.00 0.00 0.00 61 1014.8
20260506002435 76 88 0.0 3.0 0.00 0.00 0.00 60 1014.8
20260506001940 76 45 1.0 4.0 0.00 0.00 0.00 59 1014.8
20260506001433 76 54 1.0 4.0 0.00 0.00 0.00 59 1014.8
20260506001003 76 141 1.0 3.0 0.00 0.00 0.00 58 1014.8
20260506000458 76 87 0.0 3.0 0.00 0.00 0.00 59 1014.8
20260505235946 76 68 1.0 5.0 0.00 0.00 0.00 59 1014.8
20260505235433 77 37 1.0 5.0 0.00 0.00 0.00 60 1014.8
20260505234948 77 97 1.0 5.0 0.00 0.00 0.00 59 1014.8
20260505234442 77 52 1.0 4.0 0.00 0.00 0.00 58 1014.8
20260505233959 77 77 1.0 4.0 0.00 0.00 0.00 59 1014.8
20260505233432 77 67 1.0 4.0 0.00 0.00 0.00 58 1014.8
20260505232941 77 20 2.0 6.0 0.00 0.00 0.00 57 1014.9
20260505232436 78 39 1.0 6.0 0.00 0.00 0.00 56 1014.9
20260505231934 78 62 1.0 4.0 0.00 0.00 0.00 55 1014.9
20260505231449 78 45 1.0 6.0 0.00 0.00 0.00 56 1015.2
20260505230948 79 102 2.0 6.0 0.00 0.00 0.00 55 1015.2
20260505230502 79 36 2.0 4.0 0.00 0.00 0.00 55 1015.2
20260505225937 79 43 1.0 6.0 0.00 0.00 0.00 55 1015.4
20260505225507 79 123 1.0 6.0 0.00 0.00 0.00 54 1015.4
20260505224941 79 24 1.0 6.0 0.00 0.00 0.00 53 1015.4
20260505224439 80 28 2.0 6.0 0.00 0.00 0.00 54 1015.3
20260505223955 80 43 3.0 6.0 0.00 0.00 0.00 53 1015.3
20260505223433 80 44 2.0 5.0 0.00 0.00 0.00 53 1015.3
20260505222945 80 166 3.0 6.0 0.00 0.00 0.00 53 1015.1
20260505222441 80 89 1.0 6.0 0.00 0.00 0.00 53 1015.1
20260505221935 81 37 1.0 7.0 0.00 0.00 0.00 54 1015.1
20260505221444 81 32 3.0 7.0 0.00 0.00 0.00 54 1015.2
20260505220941 81 39 2.0 5.0 0.00 0.00 0.00 52 1015.2
20260505220507 81 79 2.0 6.0 0.00 0.00 0.00 51 1015.2
20260505215942 81 36 2.0 6.0 0.00 0.00 0.00 50 1015.0
20260505215456 81 35 3.0 6.0 0.00 0.00 0.00 51 1015.0
20260505214933 81 28 2.0 6.0 0.00 0.00 0.00 51 1015.0
20260505214442 81 10 3.0 6.0 0.00 0.00 0.00 49 1014.9
20260505213938 82 39 1.0 5.0 0.00 0.00 0.00 50 1014.9
20260505213435 82 27 2.0 5.0 0.00 0.00 0.00 48 1014.9
20260505212949 82 63 2.0 5.0 0.00 0.00 0.00 48 1014.9
20260505212445 82 81 2.0 5.0 0.00 0.00 0.00 48 1014.9
20260505211939 82 45 2.0 5.0 0.00 0.00 0.00 49 1014.9
20260505211435 83 44 2.0 4.0 0.00 0.00 0.00 48 1014.9
20260505210953 83 52 2.0 5.0 0.00 0.00 0.00 48 1014.9
20260505210448 83 42 1.0 6.0 0.00 0.00 0.00 48 1014.9
20260505205943 84 111 1.0 6.0 0.00 0.00 0.00 47 1014.8
20260505205438 84 98 2.0 6.0 0.00 0.00 0.00 45 1014.8
20260505204933 85 77 2.0 7.0 0.00 0.00 0.00 45 1014.8
20260505204444 85 42 2.0 7.0 0.00 0.00 0.00 44 1014.8
20260505203958 85 101 3.0 9.0 0.00 0.00 0.00 44 1014.8
20260505203443 86 70 3.0 9.0 0.00 0.00 0.00 44 1014.8
20260505202939 86 76 2.0 9.0 0.00 0.00 0.00 44 1015.0
20260505202433 86 38 4.0 9.0 0.00 0.00 0.00 44 1015.0
20260505201944 86 44 2.0 7.0 0.00 0.00 0.00 44 1015.0
20260505201440 86 62 2.0 7.0 0.00 0.00 0.00 45 1015.1
20260505200938 86 71 2.0 5.0 0.00 0.00 0.00 43 1015.1
20260505200433 86 106 1.0 6.0 0.00 0.00 0.00 43 1015.1
20260505195948 86 23 2.0 7.0 0.00 0.00 0.00 43 1015.3
20260505195442 86 48 1.0 7.0 0.00 0.00 0.00 44 1015.3
20260505194939 87 2 2.0 7.0 0.00 0.00 0.00 43 1015.3
20260505194435 86 15 3.0 5.0 0.00 0.00 0.00 42 1015.5
20260505193948 86 50 2.0 5.0 0.00 0.00 0.00 44 1015.5
20260505193442 86 82 2.0 6.0 0.00 0.00 0.00 47 1015.5
20260505192958 86 360 1.0 6.0 0.00 0.00 0.00 43 1015.7
20260505192431 87 41 1.0 5.0 0.00 0.00 0.00 44 1015.7
20260505191946 86 41 2.0 6.0 0.00 0.00 0.00 41 1015.7
20260505191444 87 49 2.0 5.0 0.00 0.00 0.00 41 1015.8
20260505190934 87 46 3.0 5.0 0.00 0.00 0.00 41 1015.8
20260505190442 87 30 1.0 4.0 0.00 0.00 0.00 41 1015.8
20260505185938 87 44 1.0 10.0 0.00 0.00 0.00 41 1016.0
20260505185430 87 40 3.0 10.0 0.00 0.00 0.00 41 1016.0
20260505184940 86 112 2.0 6.0 0.00 0.00 0.00 44 1016.0
20260505184437 86 330 1.0 7.0 0.00 0.00 0.00 43 1015.9
20260505183932 85 38 4.0 7.0 0.00 0.00 0.00 42 1015.9
20260505183442 86 23 2.0 6.0 0.00 0.00 0.00 42 1015.9
20260505182939 86 42 2.0 6.0 0.00 0.00 0.00 43 1016.1
20260505182442 86 342 3.0 6.0 0.00 0.00 0.00 43 1016.1
20260505181938 86 12 2.0 5.0 0.00 0.00 0.00 46 1016.1
20260505181431 86 31 2.0 6.0 0.00 0.00 0.00 42 1016.0
20260505180947 86 47 2.0 6.0 0.00 0.00 0.00 43 1016.0
20260505180443 86 360 3.0 6.0 0.00 0.00 0.00 45 1016.0
20260505175939 85 50 3.0 9.0 0.00 0.00 0.00 47 1016.2
20260505175432 85 32 3.0 9.0 0.00 0.00 0.00 43 1016.2
20260505175006 85 57 2.0 6.0 0.00 0.00 0.00 44 1016.2
20260505174501 84 32 3.0 6.0 0.00 0.00 0.00 43 1016.3
20260505173936 84 72 2.0 5.0 0.00 0.00 0.00 47 1016.3
20260505173445 83 61 2.0 9.0 0.00 0.00 0.00 48 1016.3
20260505172941 82 63 3.0 9.0 0.00 0.00 0.00 51 1016.3
20260505172436 82 37 2.0 8.0 0.00 0.00 0.00 46 1016.3
20260505171933 83 71 1.0 7.0 0.00 0.00 0.00 47 1016.3
20260505171449 83 78 2.0 7.0 0.00 0.00 0.00 48 1016.3
20260505170942 84 163 2.0 7.0 0.00 0.00 0.00 45 1016.3
20260505170438 84 90 1.0 5.0 0.00 0.00 0.00 45 1016.3
20260505170002 85 55 2.0 5.0 0.00 0.00 0.00 45 1016.1
20260505165458 85 29 3.0 5.0 0.00 0.00 0.00 47 1016.1
20260505164954 84 124 2.0 5.0 0.00 0.00 0.00 46 1016.1
20260505164449 84 75 2.0 7.0 0.00 0.00 0.00 48 1016.4
20260505163944 84 53 2.0 7.0 0.00 0.00 0.00 48 1016.4
20260505163439 83 43 1.0 5.0 0.00 0.00 0.00 48 1016.4
20260505162936 83 34 2.0 5.0 0.00 0.00 0.00 48 1016.3
20260505162433 83 38 2.0 5.0 0.00 0.00 0.00 49 1016.3
20260505161943 83 22 2.0 6.0 0.00 0.00 0.00 49 1016.3
20260505161436 82 63 2.0 6.0 0.00 0.00 0.00 52 1016.3
20260505160944 82 54 2.0 11.0 0.00 0.00 0.00 52 1016.3
20260505160440 81 51 3.0 11.0 0.00 0.00 0.00 52 1016.3
20260505152937 80 68 3.0 11.0 0.00 0.00 0.00 56 1016.2
20260505152434 79 76 3.0 7.0 0.00 0.00 0.00 58 1016.2
20260505152009 79 87 2.0 7.0 0.00 0.00 0.00 58 1016.2
20260505151442 79 168 3.0 7.0 0.00 0.00 0.00 58 1015.9
20260505150936 79 91 3.0 7.0 0.00 0.00 0.00 60 1015.9
20260505150441 79 51 2.0 12.0 0.00 0.00 0.00 58 1015.9
20260505140442 77 40 2.0 9.0 0.00 0.00 0.00 62 1015.8
20260505124940 74 63 2.0 9.0 0.00 0.00 0.00 68 1015.3
20260505124438 74 101 2.0 9.0 0.00 0.00 0.00 69 1015.7
20260505123937 74 113 2.0 5.0 0.00 0.00 0.00 70 1015.7
20260505123444 73 46 1.0 5.0 0.00 0.00 0.00 70 1015.7
20260505122936 73 27 2.0 5.0 0.00 0.00 0.00 72 1015.8
20260505122431 73 57 2.0 6.0 0.00 0.00 0.00 71 1015.8
20260505121947 72 57 2.0 6.0 0.00 0.00 0.00 73 1015.8
20260505121442 72 74 0.0 6.0 0.00 0.00 0.00 73 1015.4
20260505120937 72 39 2.0 4.0 0.00 0.00 0.00 75 1015.4
20260505120431 72 89 0.0 5.0 0.00 0.00 0.00 76 1015.4
20260505115948 71 360 2.0 5.0 0.00 0.00 0.00 78 1015.0
20260505115441 71 46 2.0 3.0 0.00 0.00 0.00 77 1015.0
20260505114955 71 12 0.0 3.0 0.00 0.00 0.00 79 1015.0
20260505114447 70 71 0.0 4.0 0.00 0.00 0.00 79 1015.1
20260505113943 70 131 2.0 4.0 0.00 0.00 0.00 79 1015.1
20260505113440 70 44 1.0 4.0 0.00 0.00 0.00 79 1015.1
20260505112935 70 113 1.0 5.0 0.00 0.00 0.00 79 1014.8
20260505112444 70 46 1.0 5.0 0.00 0.00 0.00 79 1014.8
20260505112001 69 52 0.0 3.0 0.00 0.00 0.00 79 1014.8
20260505111437 69 152 1.0 3.0 0.00 0.00 0.00 79 1014.7
20260505110931 69 72 0.0 5.0 0.00 0.00 0.00 79 1014.7
20260505110440 69 70 1.0 5.0 0.00 0.00 0.00 80 1014.7